Location: Newark
(48.2308°N, 120.8549°W)
Time: 07:02:13
(UTC+00:00)

Transit 2A - All Passes

Search period start: 26 May 2020 00:00
Search period end: 05 June 2020 00:00
Orbit: 594 x 965 km, 66.7° (Epoch: 25 May)

Date Brightness Start Highest point End Pass type
(mag) Time Alt. Az. Time Alt. Az. Time Alt. Az.
26 May - 01:33:03 10° WNW 01:36:21 16° NNW 01:39:49 10° NNE daylight
26 May - 03:19:42 10° NNW 03:22:08 13° N 03:24:39 10° NNE daylight
26 May - 05:02:56 10° NNW 05:07:39 23° NNE 05:12:33 10° E visible
26 May - 06:45:46 10° NNW 06:51:54 73° NE 06:58:16 10° SE visible
26 May - 08:29:43 10° NW 08:34:42 26° WSW 08:39:47 10° SSW visible
26 May - 21:30:35 10° SSE 21:34:32 25° ESE 21:38:49 10° NE daylight
26 May - 23:12:20 10° SW 23:17:16 58° NW 23:22:48 10° NNE daylight
27 May - 00:58:05 10° WNW 01:01:47 18° NNW 01:05:43 10° NNE daylight
27 May - 02:45:11 10° NNW 02:47:28 12° N 02:49:49 10° NNE daylight
27 May - 04:28:52 10° NNW 04:33:08 20° NNE 04:37:34 10° ENE visible
27 May - 06:11:39 10° NNW 06:17:39 57° NE 06:23:55 10° SE visible
27 May - 07:55:13 10° NW 08:00:44 35° WSW 08:06:25 10° S visible
27 May - 20:57:28 10° SE 21:00:40 17° ESE 21:04:03 10° ENE daylight
27 May - 22:38:05 10° SW 22:43:03 79° NW 22:48:40 10° NNE daylight
28 May - 00:23:12 10° W 00:27:16 22° NNW 00:31:39 10° NNE daylight
28 May - 02:10:28 10° NNW 02:12:47 12° N 02:15:12 10° NNE daylight
28 May - 03:54:46 10° NNW 03:58:34 17° NNE 04:02:32 10° ENE daylight
28 May - 05:37:32 10° NNW 05:43:22 45° NE 05:49:26 10° ESE visible
28 May - 07:20:51 10° NW 07:26:44 47° WSW 07:32:47 10° S visible
28 May - 20:25:10 10° ESE 20:26:52 12° E 20:28:37 10° E daylight
28 May - 22:03:58 10° SSW 22:08:55 76° ESE 22:14:28 10° NE daylight
28 May - 23:48:24 10° W 23:52:48 26° NW 23:57:34 10° NNE daylight
29 May - 01:35:34 10° NW 01:38:08 13° N 01:40:47 10° NNE daylight
29 May - 03:20:38 10° NNW 03:23:59 15° NNE 03:27:27 10° NE daylight
29 May - 05:03:28 10° NNW 05:09:01 36° NE 05:14:49 10° ESE visible
29 May - 06:46:34 10° NW 06:52:40 63° WSW 06:58:57 10° SSE visible
29 May - 08:32:30 10° WNW 08:34:52 12° W 08:37:15 10° WSW visible
29 May - 21:30:02 10° SSW 21:34:50 54° ESE 21:40:13 10° NE daylight
29 May - 23:13:43 10° WSW 23:18:22 33° NW 23:23:29 10° NNE daylight
30 May - 01:00:35 10° NW 01:03:29 14° NNW 01:06:32 10° NNE daylight
30 May - 02:46:25 10° NNW 02:49:21 14° NNE 02:52:22 10° NE daylight
30 May - 04:29:24 10° NNW 04:34:37 29° NE 04:40:04 10° E visible
30 May - 06:12:21 10° NW 06:18:33 82° WSW 06:24:57 10° SSE visible
30 May - 07:57:04 10° WNW 08:01:02 18° WSW 08:05:02 10° SW visible
30 May - 20:56:17 10° S 21:00:50 38° ESE 21:05:53 10° NE daylight
30 May - 22:39:10 10° WSW 22:44:01 42° NW 22:49:24 10° NNE daylight
31 May - 00:25:35 10° NW 00:28:53 16° NNW 00:32:21 10° NNE daylight
31 May - 02:12:06 10° NNW 02:14:42 13° N 02:17:22 10° NNE daylight
31 May - 03:55:20 10° NNW 04:00:11 24° NNE 04:05:13 10° E daylight
31 May - 05:38:12 10° NNW 05:44:22 77° NE 05:50:46 10° SE visible
31 May - 07:22:16 10° WNW 07:27:08 24° WSW 07:32:05 10° SSW visible
31 May - 20:22:45 10° SSE 20:26:54 27° ESE 20:31:24 10° NE daylight
31 May - 22:04:44 10° SW 22:09:43 55° NW 22:15:18 10° NNE daylight
31 May - 23:50:36 10° WNW 23:54:18 18° NNW 23:58:14 10° NNE daylight
01 Jun - 01:37:36 10° NNW 01:40:01 12° N 01:42:30 10° NNE daylight
01 Jun - 03:21:15 10° NNW 03:25:40 21° NNE 03:30:16 10° ENE daylight
01 Jun - 05:04:04 10° NNW 05:10:09 60° NE 05:16:28 10° SE visible
01 Jun - 06:47:43 10° NW 06:53:11 33° WSW 06:58:45 10° S visible
01 Jun - 19:49:34 10° SSE 19:53:01 19° ESE 19:56:43 10° ENE daylight
01 Jun - 21:30:27 10° SW 21:35:29 75° NW 21:41:10 10° NNE daylight
01 Jun - 23:15:42 10° WNW 23:19:46 21° NNW 23:24:08 10° NNE daylight
02 Jun - 01:02:55 10° NNW 01:05:21 13° N 01:07:51 10° NNE daylight
02 Jun - 02:47:09 10° NNW 02:51:07 18° NNE 02:55:14 10° ENE daylight
02 Jun - 04:29:57 10° NNW 04:35:52 47° NE 04:42:00 10° ESE visible
02 Jun - 06:13:19 10° NW 06:19:11 44° WSW 06:25:10 10° S visible
02 Jun - 19:16:57 10° SE 19:19:12 13° E 19:21:33 10° ENE daylight
02 Jun - 20:56:19 10° SSW 21:01:19 81° ESE 21:06:58 10° NE daylight
02 Jun - 22:40:53 10° W 22:45:16 26° NNW 22:50:04 10° NNE daylight
03 Jun - 00:28:04 10° NW 00:30:41 13° N 00:33:23 10° NNE daylight
03 Jun - 02:13:01 10° NNW 02:16:32 16° NNE 02:20:10 10° NE daylight
03 Jun - 03:55:53 10° NNW 04:01:32 37° NE 04:07:25 10° ESE daylight
03 Jun - 05:39:02 10° NW 05:45:08 59° WSW 05:51:23 10° SSE visible
03 Jun - 07:25:25 10° W 07:27:15 11° W 07:29:05 10° WSW visible
03 Jun - 20:22:20 10° SSW 20:27:14 58° ESE 20:32:44 10° NE daylight
03 Jun - 22:06:11 10° WSW 22:10:51 32° NW 22:15:59 10° NNE daylight
03 Jun - 23:53:06 10° NW 23:56:02 14° NNW 23:59:05 10° NNE daylight
04 Jun - 01:38:48 10° NNW 01:41:54 14° NNE 01:45:06 10° NE daylight
04 Jun - 03:21:48 10° NNW 03:27:09 31° NE 03:32:42 10° E daylight
04 Jun - 05:04:48 10° NW 05:11:02 78° WSW 05:17:24 10° SSE visible
04 Jun - 06:49:42 10° WNW 06:53:26 16° WSW 06:57:12 10° SW visible
04 Jun - 19:48:32 10° S 19:53:13 41° ESE 19:58:25 10° NE daylight
04 Jun - 21:31:36 10° WSW 21:36:29 40° NW 21:41:53 10° NNE daylight
04 Jun - 23:18:05 10° NW 23:21:25 16° NNW 23:24:53 10° NNE daylight
